Time,TemperatureF,DewpointF,PressureIn,WindDirection,WindDirectionDegrees,WindSpeedMPH,WindSpeedGustMPH,Humidity,HourlyPrecipIn,Conditions,Clouds,dailyrainin,SoftwareType,DateUTC
2014-02-01 00:01:00,75.0,73.7,30.09,SSW,200,2.4,3.0,96,0.00,,---,0.00,VWS V13.01,2014-02-01 05:01:00,
2014-02-01 00:02:00,74.8,73.5,30.09,SSW,197,0.0,0.0,96,0.00,,---,0.00,VWS V13.01,2014-02-01 05:02:00,
2014-02-01 00:03:00,74.7,73.4,30.09,SSW,197,0.0,0.0,96,0.00,,---,0.00,VWS V13.01,2014-02-01 05:03:00,
2014-02-01 00:07:00,74.8,73.5,30.09,SSW,211,1.1,1.7,96,0.00,,---,0.00,VWS V13.01,2014-02-01 05:07:00,
2014-02-01 00:12:00,74.7,73.4,30.09,South,177,0.6,2.5,96,0.00,,---,0.00,VWS V13.01,2014-02-01 05:12:00,
2014-02-01 00:17:00,74.7,73.4,30.09,SSW,193,0.0,0.0,96,0.00,,---,0.00,VWS V13.01,2014-02-01 05:17:00,
2014-02-01 00:19:00,74.8,73.5,30.09,SSW,193,0.0,0.0,96,0.00,,---,0.00,VWS V13.01,2014-02-01 05:19:00,
2014-02-01 00:24:00,74.7,73.4,30.09,ESE,110,0.0,0.0,96,0.00,,---,0.00,VWS V13.01,2014-02-01 05:24:00,
2014-02-01 00:29:00,74.7,73.4,30.08,South,186,0.0,0.4,96,0.00,,---,0.00,VWS V13.01,2014-02-01 05:29:00,
2014-02-01 00:33:00,74.9,73.6,30.08,South,183,0.0,1.2,96,0.00,,---,0.00,VWS V13.01,2014-02-01 05:33:00,
2014-02-01 00:38:00,74.6,73.3,30.08,SE,142,1.0,3.2,96,0.00,,---,0.00,VWS V13.01,2014-02-01 05:38:00,
2014-02-01 00:43:00,74.7,73.4,30.08,South,179,1.0,5.7,96,0.00,,---,0.00,VWS V13.01,2014-02-01 05:43:00,
2014-02-01 00:48:00,74.6,73.3,30.08,SSE,148,2.9,4.0,96,0.00,,---,0.00,VWS V13.01,2014-02-01 05:48:00,
2014-02-01 00:53:00,74.7,73.4,30.08,ESE,118,0.0,0.0,96,0.00,,---,0.00,VWS V13.01,2014-02-01 05:53:00,
2014-02-01 00:58:00,74.6,73.3,30.08,SSW,193,0.0,0.6,96,0.00,,---,0.00,VWS V13.01,2014-02-01 05:58:00,
2014-02-01 01:03:00,74.6,73.2,30.08,SSE,163,0.0,0.4,96,0.00,,---,0.00,VWS V13.01,2014-02-01 06:03:00,
2014-02-01 01:08:00,74.7,73.3,30.08,South,190,2.9,3.4,96,0.00,,---,0.00,VWS V13.01,2014-02-01 06:08:00,
2014-02-01 01:13:00,74.8,73.4,30.08,South,173,1.1,3.3,95,0.00,,---,0.00,VWS V13.01,2014-02-01 06:13:00,
2014-02-01 01:18:00,74.7,73.3,30.09,South,173,0.5,0.7,95,0.00,,---,0.00,VWS V13.01,2014-02-01 06:18:00,
2014-02-01 01:19:00,74.6,73.2,30.09,South,173,0.0,0.0,95,0.00,,---,0.00,VWS V13.01,2014-02-01 06:19:00,
2014-02-01 01:24:00,74.7,73.3,30.09,South,181,0.0,1.6,95,0.00,,---,0.00,VWS V13.01,2014-02-01 06:24:00,
2014-02-01 01:30:00,74.3,72.8,30.08,South,181,0.0,0.0,95,0.00,,---,0.00,VWS V13.01,2014-02-01 06:30:00,
2014-02-01 01:35:00,74.4,72.9,30.08,South,181,0.0,0.0,95,0.00,,---,0.00,VWS V13.01,2014-02-01 06:35:00,
2014-02-01 01:40:00,74.4,72.9,30.08,SSE,159,1.4,4.5,95,0.00,,---,0.00,VWS V13.01,2014-02-01 06:40:00,
2014-02-01 01:45:00,74.5,73.0,30.08,SE,139,1.2,1.2,95,0.00,,---,0.00,VWS V13.01,2014-02-01 06:45:00,
2014-02-01 01:49:00,74.6,73.1,30.08,South,180,0.0,0.0,95,0.00,,---,0.00,VWS V13.01,2014-02-01 06:49:00,
2014-02-01 01:54:00,74.3,72.8,30.08,SSE,155,0.9,2.2,95,0.00,,---,0.00,VWS V13.01,2014-02-01 06:54:00,
2014-02-01 01:59:00,74.3,72.8,30.08,SE,141,2.7,3.7,95,0.00,,---,0.00,VWS V13.01,2014-02-01 06:59:00,
2014-02-01 02:04:00,74.3,72.7,30.08,South,169,0.9,1.7,95,0.00,,---,0.00,VWS V13.01,2014-02-01 07:04:00,
2014-02-01 02:09:00,74.5,72.8,30.08,SSE,150,0.0,0.0,95,0.00,,---,0.00,VWS V13.01,2014-02-01 07:09:00,
2014-02-01 02:14:00,74.4,72.7,30.08,SSE,163,3.0,3.0,94,0.00,,---,0.00,VWS V13.01,2014-02-01 07:14:00,
2014-02-01 02:19:00,74.4,72.7,30.08,SSW,202,1.3,1.3,94,0.00,,---,0.00,VWS V13.01,2014-02-01 07:19:00,
2014-02-01 02:24:00,74.4,72.6,30.08,South,184,2.0,2.1,94,0.00,,---,0.00,VWS V13.01,2014-02-01 07:24:00,
2014-02-01 02:30:00,74.5,72.6,30.08,South,188,1.1,1.4,94,0.00,,---,0.00,VWS V13.01,2014-02-01 07:30:00,
2014-02-01 02:35:00,74.3,72.4,30.08,South,186,0.6,1.9,94,0.00,,---,0.00,VWS V13.01,2014-02-01 07:35:00,
2014-02-01 02:37:00,74.3,72.3,30.08,South,184,0.0,1.1,94,0.00,,---,0.00,VWS V13.01,2014-02-01 07:37:00,
2014-02-01 02:42:00,74.4,72.3,30.08,SSW,194,1.2,1.2,93,0.00,,---,0.00,VWS V13.01,2014-02-01 07:42:00,
2014-02-01 02:47:00,74.4,72.2,30.08,SSE,166,4.5,5.7,93,0.00,,---,0.00,VWS V13.01,2014-02-01 07:47:00,
2014-02-01 02:52:00,74.5,72.3,30.08,South,190,1.4,3.5,93,0.00,,---,0.00,VWS V13.01,2014-02-01 07:52:00,
2014-02-01 02:57:00,74.5,72.3,30.08,SSE,158,2.1,2.3,93,0.00,,---,0.00,VWS V13.01,2014-02-01 07:57:00,
2014-02-01 03:02:00,74.5,72.3,30.08,SSE,158,0.0,0.4,93,0.00,,---,0.00,VWS V13.01,2014-02-01 08:02:00,
2014-02-01 03:07:00,74.7,72.5,30.08,SSE,167,0.0,0.0,93,0.00,,---,0.00,VWS V13.01,2014-02-01 08:07:00,
2014-02-01 03:12:00,74.6,72.4,30.08,South,181,0.0,1.1,93,0.00,,---,0.00,VWS V13.01,2014-02-01 08:12:00,
2014-02-01 03:17:00,74.7,72.6,30.08,South,181,1.3,1.6,93,0.00,,---,0.00,VWS V13.01,2014-02-01 08:17:00,
2014-02-01 03:22:00,74.6,72.5,30.08,SSE,158,1.2,2.7,93,0.00,,---,0.00,VWS V13.01,2014-02-01 08:22:00,
2014-02-01 03:27:00,74.8,72.8,30.08,SE,146,1.3,4.1,94,0.00,,---,0.00,VWS V13.01,2014-02-01 08:27:00,
2014-02-01 03:32:00,74.8,72.8,30.08,South,170,1.7,2.6,94,0.00,,---,0.00,VWS V13.01,2014-02-01 08:32:00,
2014-02-01 03:37:00,74.8,72.9,30.08,SSE,163,1.5,3.4,94,0.00,,---,0.00,VWS V13.01,2014-02-01 08:37:00,
2014-02-01 03:40:00,74.8,72.9,30.08,East,90,1.6,4.4,94,0.00,,---,0.00,VWS V13.01,2014-02-01 08:40:00,
2014-02-01 03:45:00,74.8,72.9,30.08,ESE,121,0.0,2.2,94,0.00,,---,0.00,VWS V13.01,2014-02-01 08:45:00,
2014-02-01 03:50:00,74.6,72.7,30.08,SSE,155,1.2,1.6,94,0.00,,---,0.00,VWS V13.01,2014-02-01 08:50:00,
2014-02-01 03:55:00,74.7,72.9,30.08,SSE,156,2.4,3.4,94,0.00,,---,0.00,VWS V13.01,2014-02-01 08:55:00,
2014-02-01 04:00:00,74.7,72.9,30.08,SSW,198,1.1,1.6,94,0.00,,---,0.00,VWS V13.01,2014-02-01 09:00:00,
2014-02-01 04:05:00,74.6,72.8,30.08,South,191,1.9,2.9,94,0.00,,---,0.00,VWS V13.01,2014-02-01 09:05:00,
2014-02-01 04:10:00,74.7,73.0,30.08,SE,145,1.6,2.9,94,0.00,,---,0.00,VWS V13.01,2014-02-01 09:10:00,
2014-02-01 04:15:00,74.6,72.9,30.08,SSE,158,1.0,1.6,94,0.00,,---,0.00,VWS V13.01,2014-02-01 09:15:00,
2014-02-01 04:20:00,74.6,72.9,30.08,SSW,200,2.2,3.4,94,0.00,,---,0.00,VWS V13.01,2014-02-01 09:20:00,
2014-02-01 04:25:00,74.4,72.7,30.08,SE,131,5.1,6.4,94,0.00,,---,0.00,VWS V13.01,2014-02-01 09:25:00,
2014-02-01 04:30:00,74.3,72.6,30.08,SSE,158,5.2,9.8,94,0.00,,---,0.00,VWS V13.01,2014-02-01 09:30:00,
2014-02-01 04:35:00,74.5,72.8,30.08,SE,129,2.5,5.2,94,0.00,,---,0.00,VWS V13.01,2014-02-01 09:35:00,
2014-02-01 04:40:00,74.7,72.9,30.08,SSE,156,1.7,2.0,94,0.00,,---,0.00,VWS V13.01,2014-02-01 09:40:00,
2014-02-01 04:45:00,74.7,72.8,30.08,ESE,118,0.0,4.0,94,0.00,,---,0.00,VWS V13.01,2014-02-01 09:45:00,
2014-02-01 04:50:00,74.5,72.6,30.08,South,172,3.4,8.0,94,0.00,,---,0.00,VWS V13.01,2014-02-01 09:50:00,
2014-02-01 04:55:00,74.4,72.4,30.08,SSE,165,3.0,4.0,94,0.00,,---,0.00,VWS V13.01,2014-02-01 09:55:00,
2014-02-01 05:00:00,74.5,72.3,30.08,SSE,158,3.0,4.3,93,0.00,,---,0.00,VWS V13.01,2014-02-01 10:00:00,
2014-02-01 05:05:00,74.5,72.3,30.08,South,184,2.7,5.8,93,0.00,,---,0.00,VWS V13.01,2014-02-01 10:05:00,
2014-02-01 05:10:00,74.3,72.0,30.08,SSE,149,2.2,3.0,93,0.00,,---,0.00,VWS V13.01,2014-02-01 10:10:00,
2014-02-01 05:15:00,74.4,72.1,30.08,SSE,150,4.4,4.4,92,0.00,,---,0.00,VWS V13.01,2014-02-01 10:15:00,
2014-02-01 05:20:00,74.4,72.0,30.08,SSE,165,4.7,5.8,92,0.00,,---,0.00,VWS V13.01,2014-02-01 10:20:00,
2014-02-01 05:25:00,74.6,72.2,30.08,SSE,148,2.5,3.1,92,0.00,,---,0.00,VWS V13.01,2014-02-01 10:25:00,
2014-02-01 05:31:00,74.7,72.2,30.08,SSE,163,2.7,2.9,92,0.00,,---,0.00,VWS V13.01,2014-02-01 10:31:00,
2014-02-01 05:36:00,74.5,72.1,30.08,South,177,0.0,1.2,92,0.00,,---,0.00,VWS V13.01,2014-02-01 10:36:00,
2014-02-01 05:41:00,74.4,72.0,30.09,SSW,193,1.9,4.7,92,0.00,,---,0.00,VWS V13.01,2014-02-01 10:41:00,
2014-02-01 05:46:00,74.4,72.0,30.09,SSE,160,1.3,2.1,92,0.00,,---,0.00,VWS V13.01,2014-02-01 10:46:00,
2014-02-01 05:51:00,74.4,72.1,30.09,South,188,0.0,0.9,92,0.00,,---,0.00,VWS V13.01,2014-02-01 10:51:00,
2014-02-01 05:56:00,74.2,71.9,30.09,East,93,1.1,1.4,92,0.00,,---,0.00,VWS V13.01,2014-02-01 10:56:00,
2014-02-01 06:01:00,74.2,71.9,30.09,SSW,201,3.4,4.2,92,0.00,,---,0.00,VWS V13.01,2014-02-01 11:01:00,
2014-02-01 06:06:00,74.0,71.7,30.09,SSE,167,1.1,3.2,92,0.00,,---,0.00,VWS V13.01,2014-02-01 11:06:00,
2014-02-01 06:11:00,74.0,71.7,30.09,South,174,2.4,3.5,92,0.00,,---,0.00,VWS V13.01,2014-02-01 11:11:00,
2014-02-01 06:16:00,73.9,71.6,30.09,SSW,194,0.0,0.0,93,0.00,,---,0.00,VWS V13.01,2014-02-01 11:16:00,
2014-02-01 06:21:00,73.9,71.7,30.10,SSE,153,3.1,3.4,93,0.00,,---,0.00,VWS V13.01,2014-02-01 11:21:00,
2014-02-01 06:26:00,73.9,71.7,30.10,SSW,194,1.4,2.3,93,0.00,,---,0.00,VWS V13.01,2014-02-01 11:26:00,
2014-02-01 06:31:00,74.0,71.8,30.10,South,176,3.1,5.7,93,0.00,,---,0.00,VWS V13.01,2014-02-01 11:31:00,
2014-02-01 06:36:00,74.2,71.9,30.10,South,183,2.5,3.0,93,0.00,,---,0.00,VWS V13.01,2014-02-01 11:36:00,
2014-02-01 06:41:00,74.0,71.7,30.10,SSW,193,0.0,2.1,92,0.00,,---,0.00,VWS V13.01,2014-02-01 11:41:00,
2014-02-01 06:46:00,74.2,71.9,30.10,South,188,3.0,3.5,92,0.00,,---,0.00,VWS V13.01,2014-02-01 11:46:00,
2014-02-01 06:51:00,74.0,71.7,30.10,SSW,195,4.1,4.1,92,0.00,,---,0.00,VWS V13.01,2014-02-01 11:51:00,
2014-02-01 06:56:00,74.0,71.7,30.11,SSW,194,0.0,1.3,92,0.00,,---,0.00,VWS V13.01,2014-02-01 11:56:00,
2014-02-01 07:01:00,74.0,71.7,30.11,SE,142,0.0,0.4,92,0.00,,---,0.00,VWS V13.01,2014-02-01 12:01:00,
2014-02-01 07:06:00,73.9,71.6,30.11,South,180,0.0,0.0,93,0.00,,---,0.00,VWS V13.01,2014-02-01 12:06:00,
2014-02-01 07:11:00,73.9,71.7,30.11,South,180,0.0,0.0,93,0.00,,---,0.00,VWS V13.01,2014-02-01 12:11:00,
2014-02-01 07:16:00,73.9,71.7,30.11,South,180,0.0,0.0,93,0.00,,---,0.00,VWS V13.01,2014-02-01 12:16:00,
2014-02-01 07:21:00,73.8,71.7,30.11,SSE,153,0.6,1.3,93,0.00,,---,0.00,VWS V13.01,2014-02-01 12:21:00,
2014-02-01 07:26:00,73.8,71.7,30.12,SSE,149,2.2,3.2,93,0.00,,---,0.00,VWS V13.01,2014-02-01 12:26:00,
2014-02-01 07:31:00,73.7,71.6,30.12,South,180,0.6,1.4,93,0.00,,---,0.00,VWS V13.01,2014-02-01 12:31:00,
2014-02-01 07:36:00,73.9,71.8,30.12,South,190,0.2,0.4,93,0.00,,---,0.00,VWS V13.01,2014-02-01 12:36:00,
2014-02-01 07:41:00,74.0,72.0,30.12,SSW,204,1.9,2.4,93,0.00,,---,0.00,VWS V13.01,2014-02-01 12:41:00,
2014-02-01 07:46:00,74.1,72.1,30.12,SSE,166,0.0,0.0,93,0.00,,---,0.00,VWS V13.01,2014-02-01 12:46:00,
2014-02-01 07:51:00,74.3,72.2,30.12,SSE,166,0.0,0.0,93,0.00,,---,0.00,VWS V13.01,2014-02-01 12:51:00,
2014-02-01 07:56:00,74.4,72.3,30.13,SSE,155,0.0,1.1,93,0.00,,---,0.00,VWS V13.01,2014-02-01 12:56:00,
2014-02-01 08:01:00,74.7,72.6,30.13,SSE,153,3.5,4.0,93,0.00,,---,0.00,VWS V13.01,2014-02-01 13:01:00,
2014-02-01 08:06:00,74.9,72.7,30.13,SW,218,2.0,5.2,93,0.00,,---,0.00,VWS V13.01,2014-02-01 13:06:00,
2014-02-01 08:11:00,75.4,73.0,30.13,SW,217,2.4,3.6,92,0.00,,---,0.00,VWS V13.01,2014-02-01 13:11:00,
2014-02-01 08:16:00,75.7,73.0,30.13,South,172,4.5,4.6,91,0.00,,---,0.00,VWS V13.01,2014-02-01 13:16:00,
2014-02-01 08:21:00,76.0,72.7,30.13,ESE,121,2.6,3.7,90,0.00,,---,0.00,VWS V13.01,2014-02-01 13:21:00,
2014-02-01 08:26:00,76.6,73.1,30.13,ESE,122,1.9,3.0,89,0.00,,---,0.00,VWS V13.01,2014-02-01 13:26:00,
2014-02-01 08:31:00,76.5,72.5,30.13,SE,145,5.7,7.7,88,0.00,,---,0.00,VWS V13.01,2014-02-01 13:31:00,
2014-02-01 08:37:00,76.8,72.5,30.13,SSE,158,6.5,7.0,87,0.00,,---,0.00,VWS V13.01,2014-02-01 13:37:00,
2014-02-01 08:42:00,76.9,72.0,30.13,SSE,160,8.5,8.5,85,0.00,,---,0.00,VWS V13.01,2014-02-01 13:42:00,
2014-02-01 08:47:00,77.1,72.1,30.14,East,100,5.0,6.8,84,0.00,,---,0.00,VWS V13.01,2014-02-01 13:47:00,
2014-02-01 08:52:00,77.3,72.4,30.14,SE,141,2.5,3.9,85,0.00,,---,0.00,VWS V13.01,2014-02-01 13:52:00,
2014-02-01 08:57:00,77.9,72.8,30.14,South,186,0.9,2.3,84,0.00,,---,0.00,VWS V13.01,2014-02-01 13:57:00,
2014-02-01 09:02:00,78.1,72.3,30.14,South,187,7.5,13.0,82,0.00,,---,0.00,VWS V13.01,2014-02-01 14:02:00,
2014-02-01 09:07:00,78.3,72.3,30.14,SE,134,5.3,8.1,82,0.00,,---,0.00,VWS V13.01,2014-02-01 14:07:00,
2014-02-01 09:12:00,78.7,72.5,30.15,SE,135,6.2,9.8,81,0.00,,---,0.00,VWS V13.01,2014-02-01 14:12:00,
2014-02-01 09:17:00,78.8,72.5,30.15,SSE,149,1.8,5.6,81,0.00,,---,0.00,VWS V13.01,2014-02-01 14:17:00,
2014-02-01 09:22:00,78.9,72.2,30.15,SSE,149,8.3,8.9,80,0.00,,---,0.00,VWS V13.01,2014-02-01 14:22:00,
2014-02-01 09:27:00,79.0,72.0,30.15,SE,127,4.8,8.9,79,0.00,,---,0.00,VWS V13.01,2014-02-01 14:27:00,
2014-02-01 09:32:00,79.2,72.0,30.15,SE,136,3.5,8.5,79,0.00,,---,0.00,VWS V13.01,2014-02-01 14:32:00,
2014-02-01 09:37:00,79.7,72.3,30.15,SSW,204,2.8,8.7,78,0.00,,---,0.00,VWS V13.01,2014-02-01 14:37:00,
2014-02-01 09:42:00,79.9,72.0,30.16,South,180,2.8,6.9,77,0.00,,---,0.00,VWS V13.01,2014-02-01 14:42:00,
2014-02-01 09:47:00,80.2,72.1,30.15,South,170,3.0,9.6,76,0.00,,---,0.00,VWS V13.01,2014-02-01 14:47:00,
2014-02-01 09:52:00,80.2,71.9,30.15,South,176,3.6,6.4,76,0.00,,---,0.00,VWS V13.01,2014-02-01 14:52:00,
2014-02-01 09:55:00,80.2,71.7,30.15,SSE,160,7.3,10.7,75,0.00,,---,0.00,VWS V13.01,2014-02-01 14:55:00,
2014-02-01 10:00:00,80.0,71.4,30.15,SSE,158,3.7,8.5,75,0.00,,---,0.00,VWS V13.01,2014-02-01 15:00:00,
2014-02-01 10:05:00,80.3,71.9,30.16,SSE,155,7.0,7.0,76,0.00,,---,0.00,VWS V13.01,2014-02-01 15:05:00,
2014-02-01 10:10:00,80.3,72.1,30.16,South,181,3.0,5.6,76,0.00,,---,0.00,VWS V13.01,2014-02-01 15:10:00,
2014-02-01 10:15:00,80.4,71.7,30.15,South,180,9.1,10.0,75,0.00,,---,0.00,VWS V13.01,2014-02-01 15:15:00,
2014-02-01 10:20:00,80.2,71.9,30.15,SSE,159,6.1,11.2,76,0.00,,---,0.00,VWS V13.01,2014-02-01 15:20:00,
2014-02-01 10:25:00,80.3,71.7,30.15,SSE,156,10.4,10.4,75,0.00,,---,0.00,VWS V13.01,2014-02-01 15:25:00,
2014-02-01 10:30:00,80.4,71.8,30.15,SSE,158,6.3,8.0,75,0.00,,---,0.00,VWS V13.01,2014-02-01 15:30:00,
2014-02-01 10:35:00,80.5,71.7,30.15,SSW,193,9.5,10.6,74,0.00,,---,0.00,VWS V13.01,2014-02-01 15:35:00,
2014-02-01 10:40:00,80.7,71.8,30.15,SSE,167,6.2,8.1,74,0.00,,---,0.00,VWS V13.01,2014-02-01 15:40:00,
2014-02-01 10:45:00,81.0,71.6,30.15,SSE,162,6.1,11.4,73,0.00,,---,0.00,VWS V13.01,2014-02-01 15:45:00,
2014-02-01 10:50:00,81.4,71.8,30.15,SE,143,5.4,7.1,73,0.00,,---,0.00,VWS V13.01,2014-02-01 15:50:00,
2014-02-01 10:55:00,81.6,72.2,30.15,ESE,107,5.5,10.9,73,0.00,,---,0.00,VWS V13.01,2014-02-01 15:55:00,
2014-02-01 11:00:00,81.3,72.0,30.15,SE,129,3.9,9.9,73,0.00,,---,0.00,VWS V13.01,2014-02-01 16:00:00,
2014-02-01 11:05:00,81.5,72.4,30.15,SSW,212,4.8,6.3,74,0.00,,---,0.00,VWS V13.01,2014-02-01 16:05:00,
2014-02-01 11:10:00,81.7,72.4,30.15,SE,142,9.3,9.3,73,0.00,,---,0.00,VWS V13.01,2014-02-01 16:10:00,
2014-02-01 11:15:00,81.4,72.2,30.14,SE,128,7.9,12.6,74,0.00,,---,0.00,VWS V13.01,2014-02-01 16:15:00,
2014-02-01 11:20:00,81.1,72.2,30.15,ESE,108,8.8,10.3,74,0.00,,---,0.00,VWS V13.01,2014-02-01 16:20:00,
2014-02-01 11:25:00,81.1,72.1,30.14,SSE,165,8.7,11.7,74,0.00,,---,0.00,VWS V13.01,2014-02-01 16:25:00,
2014-02-01 11:30:00,81.2,71.7,30.14,South,184,5.0,9.4,73,0.00,,---,0.00,VWS V13.01,2014-02-01 16:30:00,
2014-02-01 11:35:00,81.3,72.0,30.14,South,176,1.8,8.2,73,0.00,,---,0.00,VWS V13.01,2014-02-01 16:35:00,
2014-02-01 11:40:00,81.7,72.0,30.14,SSE,162,4.2,8.2,72,0.00,,---,0.00,VWS V13.01,2014-02-01 16:40:00,
2014-02-01 11:45:00,81.3,71.7,30.14,SE,145,4.8,10.0,73,0.00,,---,0.00,VWS V13.01,2014-02-01 16:45:00,
2014-02-01 11:50:00,81.5,72.1,30.14,South,170,6.0,8.4,73,0.00,,---,0.00,VWS V13.01,2014-02-01 16:50:00,
2014-02-01 11:55:00,81.4,71.9,30.13,South,190,4.2,9.6,73,0.00,,---,0.00,VWS V13.01,2014-02-01 16:55:00,
2014-02-01 12:00:00,80.5,71.2,30.14,ESE,115,3.0,11.8,73,0.00,,---,0.00,VWS V13.01,2014-02-01 17:00:00,
2014-02-01 12:05:00,80.9,72.2,30.13,SSE,162,8.8,10.6,75,0.00,,---,0.00,VWS V13.01,2014-02-01 17:05:00,
2014-02-01 12:10:00,81.6,72.0,30.13,South,188,4.7,11.6,73,0.00,,---,0.00,VWS V13.01,2014-02-01 17:10:00,
2014-02-01 12:15:00,81.9,71.0,30.13,SSE,165,7.8,12.7,70,0.00,,---,0.00,VWS V13.01,2014-02-01 17:15:00,
2014-02-01 12:20:00,81.6,71.3,30.13,SSW,207,9.8,9.8,71,0.00,,---,0.00,VWS V13.01,2014-02-01 17:20:00,
2014-02-01 12:25:00,82.1,71.7,30.13,SSE,155,7.1,7.6,71,0.00,,---,0.00,VWS V13.01,2014-02-01 17:25:00,
2014-02-01 12:30:00,81.0,71.1,30.13,SE,135,4.7,13.5,72,0.00,,---,0.00,VWS V13.01,2014-02-01 17:30:00,
2014-02-01 12:35:00,80.6,71.6,30.13,East,98,3.4,9.3,74,0.00,,---,0.00,VWS V13.01,2014-02-01 17:35:00,
2014-02-01 12:40:00,80.9,71.6,30.13,SSE,166,2.5,10.9,74,0.00,,---,0.00,VWS V13.01,2014-02-01 17:40:00,
2014-02-01 12:45:00,81.2,71.4,30.12,SW,217,9.3,15.3,72,0.00,,---,0.00,VWS V13.01,2014-02-01 17:45:00,
2014-02-01 12:50:00,81.6,71.9,30.12,SE,129,3.6,5.4,72,0.00,,---,0.00,VWS V13.01,2014-02-01 17:50:00,
2014-02-01 12:55:00,81.5,71.5,30.12,SSE,165,6.3,9.5,72,0.00,,---,0.00,VWS V13.01,2014-02-01 17:55:00,
2014-02-01 13:00:00,81.3,71.4,30.11,SE,145,4.9,10.6,72,0.00,,---,0.00,VWS V13.01,2014-02-01 18:00:00,
2014-02-01 13:05:00,80.5,71.0,30.11,SSE,149,5.3,13.6,73,0.00,,---,0.00,VWS V13.01,2014-02-01 18:05:00,
2014-02-01 13:10:00,80.7,71.2,30.10,SSE,158,2.4,14.7,73,0.00,,---,0.00,VWS V13.01,2014-02-01 18:10:00,
2014-02-01 13:15:00,80.9,70.9,30.10,SE,127,3.1,11.3,72,0.00,,---,0.00,VWS V13.01,2014-02-01 18:15:00,
2014-02-01 13:20:00,80.4,70.6,30.10,SE,136,8.3,12.6,72,0.00,,---,0.00,VWS V13.01,2014-02-01 18:20:00,
2014-02-01 13:25:00,80.5,70.8,30.11,South,177,7.3,9.3,72,0.00,,---,0.00,VWS V13.01,2014-02-01 18:25:00,
2014-02-01 13:30:00,80.4,71.0,30.10,SSW,202,5.9,12.8,73,0.00,,---,0.00,VWS V13.01,2014-02-01 18:30:00,
2014-02-01 13:35:00,80.3,70.9,30.10,SSE,163,8.8,9.3,73,0.00,,---,0.00,VWS V13.01,2014-02-01 18:35:00,
2014-02-01 13:40:00,80.2,71.4,30.10,SSE,149,6.8,12.8,74,0.00,,---,0.00,VWS V13.01,2014-02-01 18:40:00,
2014-02-01 13:45:00,80.2,70.8,30.10,SE,124,3.2,12.0,73,0.00,,---,0.00,VWS V13.01,2014-02-01 18:45:00,
2014-02-01 13:50:00,80.4,70.4,30.09,SSW,197,5.3,9.4,72,0.00,,---,0.00,VWS V13.01,2014-02-01 18:50:00,
2014-02-01 13:55:00,80.8,71.2,30.09,ENE,72,4.3,9.3,73,0.00,,---,0.00,VWS V13.01,2014-02-01 18:55:00,
2014-02-01 14:00:00,80.5,71.1,30.09,ESE,112,6.0,8.9,73,0.00,,---,0.00,VWS V13.01,2014-02-01 19:00:00,
2014-02-01 14:05:00,80.4,71.2,30.09,South,179,7.0,7.4,74,0.00,,---,0.00,VWS V13.01,2014-02-01 19:05:00,
2014-02-01 14:10:00,80.2,71.2,30.09,SE,127,8.8,11.0,74,0.00,,---,0.00,VWS V13.01,2014-02-01 19:10:00,
2014-02-01 14:15:00,80.5,71.1,30.09,SE,128,3.9,10.7,73,0.00,,---,0.00,VWS V13.01,2014-02-01 19:15:00,
2014-02-01 14:20:00,80.5,70.7,30.09,SE,142,9.6,11.8,72,0.00,,---,0.00,VWS V13.01,2014-02-01 19:20:00,
2014-02-01 14:25:00,80.9,71.2,30.09,SSE,152,6.0,7.5,72,0.00,,---,0.00,VWS V13.01,2014-02-01 19:25:00,
2014-02-01 14:30:00,81.5,71.1,30.08,South,181,5.2,7.6,71,0.00,,---,0.00,VWS V13.01,2014-02-01 19:30:00,
2014-02-01 14:35:00,81.7,70.5,30.08,South,183,7.0,9.6,69,0.00,,---,0.00,VWS V13.01,2014-02-01 19:35:00,
2014-02-01 14:40:00,82.3,69.8,30.08,South,183,6.3,9.4,66,0.00,,---,0.00,VWS V13.01,2014-02-01 19:40:00,
2014-02-01 14:45:00,82.3,71.0,30.08,SE,143,1.6,6.6,69,0.00,,---,0.00,VWS V13.01,2014-02-01 19:45:00,
2014-02-01 14:50:00,81.8,70.6,30.08,South,190,7.7,11.4,69,0.00,,---,0.00,VWS V13.01,2014-02-01 19:50:00,
2014-02-01 14:55:00,81.9,70.3,30.08,SE,132,5.7,10.3,68,0.00,,---,0.00,VWS V13.01,2014-02-01 19:55:00,
2014-02-01 15:00:00,81.5,70.7,30.08,SSE,165,5.0,11.0,70,0.00,,---,0.00,VWS V13.01,2014-02-01 20:00:00,
2014-02-01 15:05:00,81.3,70.5,30.08,South,190,5.1,10.2,70,0.00,,---,0.00,VWS V13.01,2014-02-01 20:05:00,
2014-02-01 15:10:00,80.8,70.5,30.08,SE,135,5.5,10.0,71,0.00,,---,0.00,VWS V13.01,2014-02-01 20:10:00,
2014-02-01 15:15:00,80.7,70.4,30.08,SW,215,6.1,11.8,71,0.00,,---,0.00,VWS V13.01,2014-02-01 20:15:00,
2014-02-01 15:20:00,80.7,70.9,30.08,SE,142,2.2,9.8,72,0.00,,---,0.00,VWS V13.01,2014-02-01 20:20:00,
2014-02-01 15:25:00,80.8,71.0,30.08,SSE,152,8.1,10.9,72,0.00,,---,0.00,VWS V13.01,2014-02-01 20:25:00,
2014-02-01 15:30:00,81.0,71.0,30.08,SE,143,4.2,8.0,72,0.00,,---,0.00,VWS V13.01,2014-02-01 20:30:00,
2014-02-01 15:35:00,81.3,71.1,30.08,ESE,121,3.1,7.4,71,0.00,,---,0.00,VWS V13.01,2014-02-01 20:35:00,
2014-02-01 15:40:00,81.6,71.0,30.08,SE,138,4.5,8.3,70,0.00,,---,0.00,VWS V13.01,2014-02-01 20:40:00,
2014-02-01 15:45:00,81.5,70.6,30.08,ESE,114,4.5,8.6,70,0.00,,---,0.00,VWS V13.01,2014-02-01 20:45:00,
2014-02-01 15:50:00,81.5,70.8,30.08,SE,143,2.8,8.2,70,0.00,,---,0.00,VWS V13.01,2014-02-01 20:50:00,
2014-02-01 15:55:00,81.2,70.9,30.08,SE,139,7.5,11.9,71,0.00,,---,0.00,VWS V13.01,2014-02-01 20:55:00,
2014-02-01 16:00:00,81.0,70.9,30.08,SSE,159,7.8,9.8,71,0.00,,---,0.00,VWS V13.01,2014-02-01 21:00:00,
2014-02-01 16:05:00,80.5,70.8,30.08,SSE,158,8.1,8.6,72,0.00,,---,0.00,VWS V13.01,2014-02-01 21:05:00,
2014-02-01 16:10:00,80.4,70.9,30.08,SSE,165,7.4,7.4,73,0.00,,---,0.00,VWS V13.01,2014-02-01 21:10:00,
2014-02-01 16:15:00,80.4,70.9,30.08,SE,143,3.9,11.6,73,0.00,,---,0.00,VWS V13.01,2014-02-01 21:15:00,
2014-02-01 16:20:00,80.4,70.8,30.08,SE,139,8.5,8.5,73,0.00,,---,0.00,VWS V13.01,2014-02-01 21:20:00,
2014-02-01 16:25:00,80.4,70.6,30.08,South,173,4.8,9.4,72,0.00,,---,0.00,VWS V13.01,2014-02-01 21:25:00,
2014-02-01 16:30:00,80.5,70.7,30.08,SSE,156,5.5,6.0,72,0.00,,---,0.00,VWS V13.01,2014-02-01 21:30:00,
2014-02-01 16:35:00,80.7,70.6,30.08,SSE,149,4.4,9.4,71,0.00,,---,0.00,VWS V13.01,2014-02-01 21:35:00,
2014-02-01 16:40:00,80.6,70.9,30.08,SE,136,3.3,3.3,72,0.00,,---,0.00,VWS V13.01,2014-02-01 21:40:00,
2014-02-01 16:45:00,80.6,71.1,30.08,ESE,122,2.1,2.8,73,0.00,,---,0.00,VWS V13.01,2014-02-01 21:45:00,
2014-02-01 16:50:00,80.5,70.6,30.08,SE,136,3.0,8.5,72,0.00,,---,0.00,VWS V13.01,2014-02-01 21:50:00,
2014-02-01 16:55:00,80.5,70.9,30.08,SE,132,4.3,8.4,73,0.00,,---,0.00,VWS V13.01,2014-02-01 21:55:00,
2014-02-01 17:00:00,80.4,71.3,30.09,SSE,159,2.2,8.6,74,0.00,,---,0.00,VWS V13.01,2014-02-01 22:00:00,
2014-02-01 17:05:00,80.3,71.6,30.08,SE,139,3.5,6.6,75,0.00,,---,0.00,VWS V13.01,2014-02-01 22:05:00,
2014-02-01 17:10:00,80.2,71.8,30.09,SSE,153,8.9,8.9,76,0.00,,---,0.00,VWS V13.01,2014-02-01 22:10:00,
2014-02-01 17:15:00,79.9,71.8,30.09,SE,131,3.0,5.8,76,0.00,,---,0.00,VWS V13.01,2014-02-01 22:15:00,
2014-02-01 17:20:00,79.9,71.7,30.09,SE,136,1.4,4.3,76,0.00,,---,0.00,VWS V13.01,2014-02-01 22:20:00,
2014-02-01 17:25:00,79.7,71.5,30.09,SSE,165,3.4,4.3,76,0.00,,---,0.00,VWS V13.01,2014-02-01 22:25:00,
2014-02-01 17:30:00,79.4,71.4,30.09,SE,132,1.8,7.0,77,0.00,,---,0.00,VWS V13.01,2014-02-01 22:30:00,
2014-02-01 17:35:00,79.2,71.6,30.09,SSE,162,3.5,5.7,78,0.00,,---,0.00,VWS V13.01,2014-02-01 22:35:00,
2014-02-01 17:40:00,79.0,71.6,30.09,SE,129,2.7,3.4,78,0.00,,---,0.00,VWS V13.01,2014-02-01 22:40:00,
2014-02-01 17:45:00,78.8,71.7,30.09,ESE,122,5.7,5.7,79,0.00,,---,0.00,VWS V13.01,2014-02-01 22:45:00,
2014-02-01 17:50:00,78.3,71.6,30.09,South,181,6.9,9.6,80,0.00,,---,0.00,VWS V13.01,2014-02-01 22:50:00,
2014-02-01 17:55:00,78.1,71.7,30.09,South,176,5.7,8.5,81,0.00,,---,0.00,VWS V13.01,2014-02-01 22:55:00,
2014-02-01 18:00:00,78.0,71.8,30.09,South,180,5.2,8.3,81,0.00,,---,0.00,VWS V13.01,2014-02-01 23:00:00,
2014-02-01 18:05:00,77.7,71.7,30.09,South,179,6.3,8.9,82,0.00,,---,0.00,VWS V13.01,2014-02-01 23:05:00,
2014-02-01 18:10:00,77.8,71.9,30.09,SSE,158,3.7,4.3,82,0.00,,---,0.00,VWS V13.01,2014-02-01 23:10:00,
2014-02-01 18:15:00,77.4,71.7,30.09,SE,132,1.0,3.7,83,0.00,,---,0.00,VWS V13.01,2014-02-01 23:15:00,
2014-02-01 18:20:00,77.4,71.8,30.10,SSE,165,5.1,6.7,83,0.00,,---,0.00,VWS V13.01,2014-02-01 23:20:00,
2014-02-01 18:25:00,77.2,71.7,30.10,SE,136,1.8,3.3,83,0.00,,---,0.00,VWS V13.01,2014-02-01 23:25:00,
2014-02-01 18:30:00,77.3,71.8,30.10,SSE,152,3.4,9.6,83,0.00,,---,0.00,VWS V13.01,2014-02-01 23:30:00,
2014-02-01 18:35:00,77.0,71.6,30.10,SSE,165,2.2,4.6,83,0.00,,---,0.00,VWS V13.01,2014-02-01 23:35:00,
2014-02-01 18:40:00,77.0,71.6,30.10,SE,136,1.2,3.7,83,0.00,,---,0.00,VWS V13.01,2014-02-01 23:40:00,
2014-02-01 18:45:00,76.9,71.5,30.10,South,174,1.6,4.8,83,0.00,,---,0.00,VWS V13.01,2014-02-01 23:45:00,
2014-02-01 18:50:00,76.9,71.5,30.10,SE,131,2.6,3.9,84,0.00,,---,0.00,VWS V13.01,2014-02-01 23:50:00,
2014-02-01 18:55:00,76.8,71.5,30.10,East,101,1.9,4.6,84,0.00,,---,0.00,VWS V13.01,2014-02-01 23:55:00,
2014-02-01 19:00:00,76.7,71.5,30.10,SSE,153,1.7,2.8,84,0.00,,---,0.00,VWS V13.01,2014-02-02 00:00:00,
2014-02-01 19:05:00,76.5,71.4,30.10,SSE,167,1.0,1.6,84,0.00,,---,0.00,VWS V13.01,2014-02-02 00:05:00,
2014-02-01 19:10:00,76.6,71.6,30.11,SSE,163,3.4,4.5,85,0.00,,---,0.00,VWS V13.01,2014-02-02 00:10:00,
2014-02-01 19:15:00,76.6,71.7,30.10,SSE,149,1.9,4.1,85,0.00,,---,0.00,VWS V13.01,2014-02-02 00:15:00,
2014-02-01 19:20:00,76.4,71.7,30.11,ESE,120,1.1,1.9,85,0.00,,---,0.00,VWS V13.01,2014-02-02 00:20:00,
2014-02-01 19:25:00,76.2,71.5,30.11,SE,134,0.4,1.8,86,0.00,,---,0.00,VWS V13.01,2014-02-02 00:25:00,
2014-02-01 19:30:00,76.3,71.7,30.11,SE,129,0.0,0.0,86,0.00,,---,0.00,VWS V13.01,2014-02-02 00:30:00,
2014-02-01 19:35:00,76.2,71.8,30.11,SE,129,0.0,0.0,86,0.00,,---,0.00,VWS V13.01,2014-02-02 00:35:00,
2014-02-01 19:40:00,75.9,71.6,30.12,SE,141,0.8,1.8,86,0.00,,---,0.00,VWS V13.01,2014-02-02 00:40:00,
2014-02-01 19:45:00,75.9,71.6,30.12,SE,129,1.4,1.4,87,0.00,,---,0.00,VWS V13.01,2014-02-02 00:45:00,
2014-02-01 19:50:00,75.8,71.6,30.12,SE,127,1.4,2.1,87,0.00,,---,0.00,VWS V13.01,2014-02-02 00:50:00,
2014-02-01 19:55:00,75.7,71.6,30.12,SE,138,0.0,1.6,87,0.00,,---,0.00,VWS V13.01,2014-02-02 00:55:00,
2014-02-01 20:00:00,75.7,71.7,30.13,SSE,149,0.0,0.0,87,0.00,,---,0.00,VWS V13.01,2014-02-02 01:00:00,
2014-02-01 20:05:00,75.6,71.7,30.13,SSE,155,3.0,3.4,88,0.00,,---,0.00,VWS V13.01,2014-02-02 01:05:00,
2014-02-01 20:10:00,75.7,71.9,30.13,East,100,0.7,2.2,88,0.00,,---,0.00,VWS V13.01,2014-02-02 01:10:00,
2014-02-01 20:15:00,75.4,71.7,30.13,SE,127,0.6,1.9,88,0.00,,---,0.00,VWS V13.01,2014-02-02 01:15:00,
2014-02-01 20:20:00,75.5,71.8,30.13,SSE,150,1.6,1.7,88,0.00,,---,0.00,VWS V13.01,2014-02-02 01:20:00,
2014-02-01 20:25:00,75.6,72.0,30.13,SE,132,1.0,2.1,88,0.00,,---,0.00,VWS V13.01,2014-02-02 01:25:00,
2014-02-01 20:30:00,75.5,72.0,30.13,ESE,110,2.2,2.4,89,0.00,,---,0.00,VWS V13.01,2014-02-02 01:30:00,
2014-02-01 20:35:00,75.5,72.1,30.13,ESE,112,0.0,0.7,89,0.00,,---,0.00,VWS V13.01,2014-02-02 01:35:00,
2014-02-01 20:40:00,75.4,72.0,30.14,SE,132,1.3,2.6,89,0.00,,---,0.00,VWS V13.01,2014-02-02 01:40:00,
2014-02-01 20:45:00,75.6,72.2,30.14,East,84,0.0,0.7,89,0.00,,---,0.00,VWS V13.01,2014-02-02 01:45:00,
2014-02-01 20:50:00,75.7,72.2,30.14,ESE,107,0.0,0.0,89,0.00,,---,0.00,VWS V13.01,2014-02-02 01:50:00,
2014-02-01 20:55:00,75.8,72.1,30.14,ESE,120,1.7,1.7,88,0.00,,---,0.00,VWS V13.01,2014-02-02 01:55:00,
2014-02-01 21:00:00,75.8,72.1,30.14,ESE,110,0.0,1.7,88,0.00,,---,0.00,VWS V13.01,2014-02-02 02:00:00,
2014-02-01 21:05:00,75.8,72.0,30.14,SE,136,0.0,0.0,88,0.00,,---,0.00,VWS V13.01,2014-02-02 02:05:00,
2014-02-01 21:10:00,75.6,71.8,30.14,SE,136,0.0,0.0,88,0.00,,---,0.00,VWS V13.01,2014-02-02 02:10:00,
2014-02-01 21:15:00,75.7,71.9,30.14,SE,136,0.0,0.0,88,0.00,,---,0.00,VWS V13.01,2014-02-02 02:15:00,
2014-02-01 21:20:00,75.6,71.9,30.14,SE,136,0.0,0.0,88,0.00,,---,0.00,VWS V13.01,2014-02-02 02:20:00,
2014-02-01 21:25:00,75.8,72.1,30.14,ESE,121,2.0,2.2,88,0.00,,---,0.00,VWS V13.01,2014-02-02 02:25:00,
2014-02-01 21:30:00,75.6,71.9,30.14,East,96,1.4,1.4,88,0.00,,---,0.00,VWS V13.01,2014-02-02 02:30:00,
2014-02-01 21:35:00,75.8,72.2,30.14,ESE,103,1.2,1.3,88,0.00,,---,0.00,VWS V13.01,2014-02-02 02:35:00,
2014-02-01 21:40:00,75.5,71.9,30.15,ESE,117,2.2,4.0,89,0.00,,---,0.00,VWS V13.01,2014-02-02 02:40:00,
2014-02-01 21:45:00,75.8,72.2,30.15,ESE,110,0.0,0.0,88,0.00,,---,0.00,VWS V13.01,2014-02-02 02:45:00,
2014-02-01 21:50:00,75.7,72.0,30.14,ENE,76,0.0,0.0,88,0.00,,---,0.00,VWS V13.01,2014-02-02 02:50:00,
2014-02-01 21:55:00,75.6,71.9,30.14,ENE,76,0.0,0.0,88,0.00,,---,0.00,VWS V13.01,2014-02-02 02:55:00,
2014-02-01 22:00:00,75.4,71.7,30.14,ENE,76,0.0,0.0,88,0.00,,---,0.00,VWS V13.01,2014-02-02 03:00:00,
2014-02-01 22:05:00,75.4,71.7,30.15,ENE,76,0.0,0.0,88,0.00,,---,0.00,VWS V13.01,2014-02-02 03:05:00,
2014-02-01 22:10:00,75.3,71.6,30.15,ENE,76,0.0,0.0,88,0.00,,---,0.00,VWS V13.01,2014-02-02 03:10:00,
2014-02-01 22:15:00,75.3,71.6,30.15,ENE,76,0.0,0.0,88,0.00,,---,0.00,VWS V13.01,2014-02-02 03:15:00,
2014-02-01 22:20:00,75.0,71.3,30.15,ENE,76,0.0,0.0,88,0.00,,---,0.00,VWS V13.01,2014-02-02 03:20:00,
2014-02-01 22:25:00,75.0,71.4,30.15,ENE,76,0.0,0.0,88,0.00,,---,0.00,VWS V13.01,2014-02-02 03:25:00,
2014-02-01 22:30:00,74.9,71.3,30.15,ENE,76,0.0,0.0,89,0.00,,---,0.00,VWS V13.01,2014-02-02 03:30:00,
2014-02-01 22:36:00,74.8,71.4,30.15,ENE,76,0.0,0.0,89,0.00,,---,0.00,VWS V13.01,2014-02-02 03:36:00,
2014-02-01 22:41:00,74.9,71.5,30.15,ENE,76,0.0,0.0,89,0.00,,---,0.00,VWS V13.01,2014-02-02 03:41:00,
2014-02-01 22:46:00,74.9,71.7,30.15,ENE,76,0.0,0.0,90,0.00,,---,0.00,VWS V13.01,2014-02-02 03:46:00,
2014-02-01 22:51:00,74.7,71.5,30.15,ENE,76,0.0,0.0,90,0.00,,---,0.00,VWS V13.01,2014-02-02 03:51:00,
2014-02-01 22:56:00,74.8,71.6,30.15,ENE,76,0.0,0.0,90,0.00,,---,0.00,VWS V13.01,2014-02-02 03:56:00,
2014-02-01 23:01:00,74.7,71.7,30.15,ESE,104,0.0,0.0,90,0.00,,---,0.00,VWS V13.01,2014-02-02 04:01:00,
2014-02-01 23:06:00,74.8,71.8,30.15,ESE,104,0.0,0.0,90,0.00,,---,0.00,VWS V13.01,2014-02-02 04:06:00,
2014-02-01 23:11:00,74.6,71.7,30.15,East,101,0.0,0.0,91,0.00,,---,0.00,VWS V13.01,2014-02-02 04:11:00,
2014-02-01 23:16:00,74.8,71.8,30.14,East,101,0.0,0.0,90,0.00,,---,0.00,VWS V13.01,2014-02-02 04:16:00,
2014-02-01 23:21:00,74.7,71.7,30.14,East,101,0.0,0.0,90,0.00,,---,0.00,VWS V13.01,2014-02-02 04:21:00,
2014-02-01 23:26:00,74.4,71.5,30.15,East,101,0.0,0.0,91,0.00,,---,0.00,VWS V13.01,2014-02-02 04:26:00,
2014-02-01 23:31:00,74.4,71.5,30.14,East,101,0.0,0.0,91,0.00,,---,0.00,VWS V13.01,2014-02-02 04:31:00,
2014-02-01 23:36:00,74.2,71.4,30.14,East,101,0.0,0.0,91,0.00,,---,0.00,VWS V13.01,2014-02-02 04:36:00,
2014-02-01 23:41:00,73.9,71.1,30.14,East,101,0.0,0.0,91,0.00,,---,0.00,VWS V13.01,2014-02-02 04:41:00,
2014-02-01 23:46:00,73.8,71.1,30.14,East,101,0.0,0.0,91,0.00,,---,0.00,VWS V13.01,2014-02-02 04:46:00,
2014-02-01 23:51:00,73.5,70.9,30.14,East,101,0.0,0.0,92,0.00,,---,0.00,VWS V13.01,2014-02-02 04:51:00,
2014-02-01 23:56:00,73.4,70.9,30.14,East,101,0.0,0.0,92,0.00,,---,0.00,VWS V13.01,2014-02-02 04:56:00,